Location: Zagreb
(45.8000°N, 16.0000°E)
Time: 14:58:39
(UTC+02:00)

ISS - Visible Passes

Search period start: 15 May 2025 00:00
Search period end: 25 May 2025 00:00
Orbit: 416 x 420 km, 51.6° (Epoch: 15 May)

Date Brightness Start Highest point End Pass type
(mag) Time Alt. Az. Time Alt. Az. Time Alt. Az.
15 May -1.4 00:41:09 10° WNW 00:42:21 20° NW 00:42:21 20° NW visible
15 May -1.8 22:16:09 10° WNW 22:19:09 29° N 22:22:08 10° ENE visible
15 May -2.4 23:53:12 10° NW 23:55:59 40° N 23:55:59 40° N visible
16 May -1.9 21:28:00 10° WNW 21:31:03 30° N 21:34:04 10° ENE visible
16 May -2.3 23:05:15 10° NW 23:08:23 35° NNE 23:09:36 26° ENE visible
17 May -1.0 00:41:59 10° WNW 00:42:30 14° WNW 00:42:30 14° WNW visible
17 May -2.0 22:17:13 10° WNW 22:20:16 31° N 22:23:12 11° ENE visible
17 May -2.4 23:54:00 10° WNW 23:56:07 36° NW 23:56:07 36° NW visible
18 May -1.9 21:29:08 10° WNW 21:32:08 29° N 21:35:07 10° ENE visible
18 May -3.3 23:06:01 10° WNW 23:09:20 56° NNE 23:09:42 52° NE visible
19 May -2.7 22:18:01 10° NW 22:21:15 42° NNE 22:23:18 19° E visible
19 May -1.7 23:54:51 10° WNW 23:56:12 21° W 23:56:12 21° W visible
20 May -2.3 21:30:00 10° NW 21:33:07 35° NNE 21:36:14 10° E visible
20 May -3.6 23:06:45 10° WNW 23:09:49 64° WSW 23:09:49 64° WSW visible
21 May -3.8 22:18:41 10° WNW 22:22:03 79° NNE 22:23:25 33° ESE visible
21 May -0.9 23:56:08 10° W 23:56:19 11° W 23:56:19 11° W visible
22 May -3.2 21:30:38 10° WNW 21:33:57 55° NNE 21:37:02 11° E visible
22 May -2.3 23:07:39 10° W 23:09:57 26° WSW 23:09:57 26° WSW visible
23 May -3.2 22:19:23 10° WNW 22:22:37 45° SW 22:23:36 33° S visible
24 May -3.7 21:31:14 10° WNW 21:34:34 72° SSW 21:37:16 15° SE visible
24 May -1.1 23:09:38 10° WSW 23:10:10 11° WSW 23:10:10 11° WSW visible
